This demonstration page uses our WeatherBlox Daily Observations layout. Learn more.

Left ArrowRight Arrow

39.92423, -83.80882

Hourly Observations for April 30, 2020

Temp ( °F °C ) Dew Point ( °F °C ) Humidity (%) Winds ( mph kmh ) Pressure ( in mb ) Visibility ( mi km ) Precip ( " mm )
12:28 am 00:28 Cloudy 52 11 52 11 100 100 SSW 10 17 29.66 1004 10 16.0934 0 0
12:56 am 00:56 Cloudy 51 10.6 51 10.6 100 100 SSW 8 13 29.65 1004 10 16.0934 0 0
1:56 am 01:56 Cloudy 51 10.6 51 10.6 100 100 SSW 8 13 29.62 1003 10 16.0934 0.001 0.001
2:11 am 02:11 Cloudy 52 11 52 11 100 100 SSW 6 9 29.64 1004 10 16.0934 0 0
2:51 am 02:51 Cloudy with Light Rain 52 11 52 11 100 100 SSW 7 11 29.61 1003 10 16.0934 0.001 0.001
2:56 am 02:56 Cloudy 51 10.6 51 10.6 100 100 SSW 8 13 29.6 1002 10 16.0934 0.001 0.001
3:27 am 03:27 Cloudy 50 10 50 10 100 100 SSW 9 15 29.59 1002 10 16.0934 0 0
3:56 am 03:56 Cloudy with Light Rain 50 10 50 10 100 100 SSW 10 17 29.58 1002 10 16.0934 0.001 0.001
4:09 am 04:09 Cloudy with Light Rain 50 10 50 10 100 100 SSW 8 13 29.6 1002 9 14.48406 0.001 0.001
4:21 am 04:21 Cloudy with Light Rain 48 9 48 9 100 100 SSW 9 15 29.6 1002 10 16.0934 0.001 0.001
4:29 am 04:29 Cloudy with Light Rain 48 9 48 9 100 100 SSW 9 15 29.6 1002 5 8.0467 0.001 0.001
4:56 am 04:56 Cloudy with Light Rain 49 9.4 49 9.4 100 100 SSW 9 15 29.59 1002 10 16.0934 0.001 0.001
5:39 am 05:39 Cloudy with Light Rain 48 9 48 9 100 100 SSW 9 15 29.6 1002 10 16.0934 0.001 0.001
5:47 am 05:47 Cloudy 48 9 48 9 100 100 SSW 10 17 29.6 1002 10 16.0934 0.001 0.001
5:56 am 05:56 Cloudy with Light Rain 49 9.4 49 9.4 100 100 SSW 9 15 29.58 1002 10 16.0934 0.001 0.001
6:56 am 06:56 Cloudy 48 8.9 48 8.9 100 100 SW 12 19 29.58 1002 10 16.0934 0.001 0.001
7:08 am 07:08 Cloudy with Light Rain 46 8 46 8 100 100 W 17 28 29.61 1003 2.5 4.02335 0.001 0.001
7:16 am 07:16 Cloudy with Light Rain 45 7 45 7 100 100 W 10 17 29.62 1003 3 4.82802 0.001 0.001
7:43 am 07:43 Cloudy 45 7 45 7 100 100 W 14 22 29.62 1003 10 16.0934 0.001 0.001
7:56 am 07:56 Cloudy 44 6.7 44 6.7 100 100 W 14 22 29.62 1003 10 16.0934 0.001 0.001
8:07 am 08:07 Cloudy 45 7 43 6 93 93 W 12 19 29.63 1003 10 16.0934 0 0
8:36 am 08:36 Cloudy 45 7 43 6 93 93 W 15 24 29.64 1004 10 16.0934 0 0
8:52 am 08:52 Cloudy 45 7 43 6 93 93 W 14 22 29.64 1004 10 16.0934 0 0
8:56 am 08:56 Cloudy 44 6.7 43 6.1 96 96 WSW 14 22 29.63 1003 10 16.0934 0 0
9:56 am 09:56 Cloudy 46 7.8 42 5.6 86 86 WSW 16 26 29.62 1003 10 16.0934 0 0
10:56 am 10:56 Cloudy with Light Rain 46 7.8 42 5.6 86 86 WSW 17 28 29.64 1004 10 16.0934 0.001 0.001
11:33 am 11:33 Cloudy with Light Rain 45 7 45 7 100 100 WSW 13 20 29.67 1005 5 8.0467 0.001 0.001
11:43 am 11:43 Cloudy with Light Rain 45 7 43 6 93 93 WSW 14 22 29.67 1005 5 8.0467 0.001 0.001
11:56 am 11:56 Cloudy 46 7.8 44 6.7 93 93 WSW 15 24 29.66 1004 10 16.0934 0.001 0.001
12:19 pm 12:19 Cloudy 46 8 43 6 87 87 WSW 15 24 29.68 1005 10 16.0934 0 0
12:56 pm 12:56 Cloudy 46 7.8 41 5 83 83 W 18 30 29.67 1005 10 16.0934 0 0
1:56 pm 13:56 Cloudy 48 8.9 42 5.6 80 80 WSW 14 22 29.67 1005 10 16.0934 0 0
2:56 pm 14:56 Cloudy 47 8.3 41 5 80 80 W 17 28 29.69 1006 10 16.0934 0 0
3:56 pm 15:56 Cloudy 46 7.8 42 5.6 86 86 W 18 30 29.7 1006 10 16.0934 0 0
4:56 pm 16:56 Cloudy 46 7.8 42 5.6 86 86 W 15 24 29.72 1006 10 16.0934 0 0
5:13 pm 17:13 Cloudy 45 7 43 6 93 93 W 17 28 29.74 1007 8 12.87472 0 0
5:56 pm 17:56 Cloudy 44 6.7 44 6.7 100 100 W 16 26 29.74 1007 10 16.0934 0.001 0.001
6:56 pm 18:56 Cloudy 45 7.2 43 6.1 93 93 W 15 24 29.75 1008 10 16.0934 0 0
7:56 pm 19:56 Cloudy 44 6.7 43 6.1 96 96 W 15 24 29.77 1008 10 16.0934 0 0
8:56 pm 20:56 Cloudy 44 6.7 43 6.1 96 96 W 17 28 29.79 1009 10 16.0934 0 0
9:56 pm 21:56 Cloudy with Light Rain 44 6.7 44 6.7 100 100 W 12 19 29.8 1009 10 16.0934 0.001 0.001
10:23 pm 22:23 Cloudy with Light Rain 45 7 45 7 100 100 W 14 22 29.81 1010 10 16.0934 0.001 0.001
10:56 pm 22:56 Cloudy 44 6.7 44 6.7 100 100 W 13 20 29.8 1009 10 16.0934 0.001 0.001
11:15 pm 23:15 Cloudy 45 7 45 7 100 100 W 12 19 29.81 1010 10 16.0934 0 0
11:56 pm 23:56 Cloudy 44 6.7 44 6.7 100 100 W 10 17 29.8 1009 10 16.0934 0 0

Powered by AerisWeather